Time,TemperatureF,DewpointF,PressureIn,WindDirection,WindDirectionDegrees,WindSpeedMPH,WindSpeedGustMPH,Humidity,HourlyPrecipIn,Conditions,Clouds,dailyrainin,SoftwareType,DateUTC
2013-04-16 00:01:00,45.1,25.1,29.09,SW,229,0.0,0.0,45,0.00,,---,0.00,VWS V14.00,2013-04-16 07:01:00,
2013-04-16 00:06:00,44.8,25.3,29.09,SW,229,0.0,0.0,46,0.00,,---,0.00,VWS V14.00,2013-04-16 07:06:00,
2013-04-16 00:11:00,44.6,25.1,29.09,SW,229,0.0,0.0,46,0.00,,---,0.00,VWS V14.00,2013-04-16 07:11:00,
2013-04-16 00:17:00,44.2,25.3,29.09,SW,229,0.0,0.0,47,0.00,,---,0.00,VWS V14.00,2013-04-16 07:17:00,
2013-04-16 00:23:00,44.1,25.6,29.09,SW,229,0.0,0.0,48,0.00,,---,0.00,VWS V14.00,2013-04-16 07:23:00,
2013-04-16 00:29:00,44.1,25.6,29.09,SW,229,0.0,0.0,48,0.00,,---,0.00,VWS V14.00,2013-04-16 07:29:00,
2013-04-16 00:34:00,43.9,25.5,29.09,SW,229,0.0,0.0,48,0.00,,---,0.00,VWS V14.00,2013-04-16 07:34:00,
2013-04-16 00:40:00,43.7,25.3,29.09,SW,229,0.0,0.0,48,0.00,,---,0.00,VWS V14.00,2013-04-16 07:40:00,
2013-04-16 00:45:00,43.5,25.6,29.09,SSE,154,0.0,0.0,49,0.00,,---,0.00,VWS V14.00,2013-04-16 07:45:00,
2013-04-16 00:51:00,43.5,25.6,29.09,SSE,153,0.0,0.0,49,0.00,,---,0.00,VWS V14.00,2013-04-16 07:51:00,
2013-04-16 00:57:00,43.7,25.8,29.09,SSE,153,0.0,0.0,49,0.00,,---,0.00,VWS V14.00,2013-04-16 07:57:00,
2013-04-16 01:03:00,43.5,25.6,29.09,SSE,153,0.0,0.0,49,0.00,,---,0.00,VWS V14.00,2013-04-16 08:03:00,
2013-04-16 01:08:00,43.5,25.6,29.09,West,279,0.0,0.0,49,0.00,,---,0.00,VWS V14.00,2013-04-16 08:08:00,
2013-04-16 01:14:00,43.5,25.6,29.09,SW,236,0.0,0.0,49,0.00,,---,0.00,VWS V14.00,2013-04-16 08:14:00,
2013-04-16 01:19:00,43.5,25.1,29.09,SW,236,0.0,0.0,48,0.00,,---,0.00,VWS V14.00,2013-04-16 08:19:00,
2013-04-16 02:23:00,42.1,23.8,29.12,SW,221,0.0,0.0,48,0.00,,---,0.00,VWS V14.00,2013-04-16 09:23:00,
2013-04-16 02:29:00,42.1,23.8,29.12,SW,222,0.0,0.0,48,0.00,,---,0.00,VWS V14.00,2013-04-16 09:29:00,
2013-04-16 02:35:00,42.3,23.5,29.12,WSW,237,0.0,0.0,47,0.00,,---,0.00,VWS V14.00,2013-04-16 09:35:00,
2013-04-16 02:40:00,42.3,23.5,29.12,SW,229,0.0,0.0,47,0.00,,---,0.00,VWS V14.00,2013-04-16 09:40:00,
2013-04-16 02:45:00,42.4,23.6,29.12,SW,225,0.0,0.0,47,0.00,,---,0.00,VWS V14.00,2013-04-16 09:45:00,
2013-04-16 02:50:00,42.4,23.1,29.12,SW,225,0.0,0.0,46,0.00,,---,0.00,VWS V14.00,2013-04-16 09:50:00,
2013-04-16 02:56:00,42.3,23.5,29.12,SW,227,0.0,0.0,47,0.00,,---,0.00,VWS V14.00,2013-04-16 09:56:00,
2013-04-16 03:01:00,42.1,23.3,29.12,SW,227,0.0,0.0,47,0.00,,---,0.00,VWS V14.00,2013-04-16 10:01:00,
2013-04-16 03:07:00,41.7,23.0,29.12,SW,228,0.0,0.0,47,0.00,,---,0.00,VWS V14.00,2013-04-16 10:07:00,
2013-04-16 03:12:00,41.4,23.2,29.12,SW,232,0.0,0.0,48,0.00,,---,0.00,VWS V14.00,2013-04-16 10:12:00,
2013-04-16 03:28:00,40.8,23.1,29.12,SW,232,0.0,0.0,49,0.00,,---,0.00,VWS V14.00,2013-04-16 10:28:00,
2013-04-16 03:34:00,41.0,23.3,29.12,SW,235,0.0,0.0,49,0.00,,---,0.00,VWS V14.00,2013-04-16 10:34:00,
2013-04-16 03:40:00,41.2,23.5,29.12,SW,220,0.0,0.0,49,0.00,,---,0.00,VWS V14.00,2013-04-16 10:40:00,
2013-04-16 03:45:00,41.2,23.5,29.12,SW,221,0.0,0.0,49,0.00,,---,0.00,VWS V14.00,2013-04-16 10:45:00,
2013-04-16 03:51:00,41.2,23.5,29.12,SW,221,0.0,0.0,49,0.00,,---,0.00,VWS V14.00,2013-04-16 10:51:00,
2013-04-16 03:57:00,41.2,23.0,29.12,SW,221,0.0,0.0,48,0.00,,---,0.00,VWS V14.00,2013-04-16 10:57:00,
2013-04-16 04:02:00,41.2,23.5,29.12,SSW,206,0.0,0.0,49,0.00,,---,0.00,VWS V14.00,2013-04-16 11:02:00,
2013-04-16 04:07:00,41.2,23.0,29.12,SSW,207,0.0,0.0,48,0.00,,---,0.00,VWS V14.00,2013-04-16 11:07:00,
2013-04-16 04:24:00,41.0,22.8,29.12,SW,218,0.0,0.0,48,0.00,,---,0.00,VWS V14.00,2013-04-16 11:24:00,
2013-04-16 04:29:00,41.0,22.8,29.12,SW,218,0.0,0.0,48,0.00,,---,0.00,VWS V14.00,2013-04-16 11:29:00,
2013-04-16 04:35:00,40.8,23.1,29.12,SW,218,0.0,0.0,49,0.00,,---,0.00,VWS V14.00,2013-04-16 11:35:00,
2013-04-16 04:40:00,40.6,23.0,29.12,SW,218,0.0,0.0,49,0.00,,---,0.00,VWS V14.00,2013-04-16 11:40:00,
2013-04-16 04:51:00,40.5,22.8,29.12,SW,220,0.0,0.0,49,0.00,,---,0.00,VWS V14.00,2013-04-16 11:51:00,
2013-04-16 04:58:00,40.1,22.5,29.15,SW,220,0.0,0.0,49,0.00,,---,0.00,VWS V14.00,2013-04-16 11:58:00,
2013-04-16 05:03:00,39.9,22.3,29.15,SW,220,0.0,0.0,49,0.00,,---,0.00,VWS V14.00,2013-04-16 12:03:00,
2013-04-16 05:08:00,39.7,22.2,29.15,SW,220,0.0,0.0,49,0.00,,---,0.00,VWS V14.00,2013-04-16 12:08:00,
2013-04-16 05:14:00,39.6,22.5,29.15,SW,220,0.0,0.0,50,0.00,,---,0.00,VWS V14.00,2013-04-16 12:14:00,
2013-04-16 05:20:00,39.4,22.3,29.15,SW,220,0.0,0.0,50,0.00,,---,0.00,VWS V14.00,2013-04-16 12:20:00,
2013-04-16 05:25:00,39.2,22.1,29.15,SW,220,0.0,0.0,50,0.00,,---,0.00,VWS V14.00,2013-04-16 12:25:00,
2013-04-16 05:31:00,39.0,22.4,29.15,SW,220,0.0,0.0,51,0.00,,---,0.00,VWS V14.00,2013-04-16 12:31:00,
2013-04-16 05:37:00,39.0,22.4,29.15,SW,220,0.0,0.0,51,0.00,,---,0.00,VWS V14.00,2013-04-16 12:37:00,
2013-04-16 05:42:00,38.8,22.3,29.15,SW,220,0.0,0.0,51,0.00,,---,0.00,VWS V14.00,2013-04-16 12:42:00,
2013-04-16 05:48:00,38.8,22.3,29.15,SW,220,0.0,0.0,51,0.00,,---,0.00,VWS V14.00,2013-04-16 12:48:00,
2013-04-16 05:53:00,38.8,22.3,29.15,SW,220,0.0,0.0,51,0.00,,---,0.00,VWS V14.00,2013-04-16 12:53:00,
2013-04-16 05:59:00,38.8,22.7,29.15,SW,220,0.0,0.0,52,0.00,,---,0.00,VWS V14.00,2013-04-16 12:59:00,
2013-04-16 06:05:00,38.7,22.6,29.15,SW,220,0.0,0.0,52,0.00,,---,0.00,VWS V14.00,2013-04-16 13:05:00,
2013-04-16 06:10:00,38.7,22.6,29.15,SW,220,0.0,0.0,52,0.00,,---,0.00,VWS V14.00,2013-04-16 13:10:00,
2013-04-16 06:15:00,38.7,22.6,29.15,SW,220,0.0,0.0,52,0.00,,---,0.00,VWS V14.00,2013-04-16 13:15:00,
2013-04-16 06:20:00,38.7,22.6,29.15,SW,220,0.0,0.0,52,0.00,,---,0.00,VWS V14.00,2013-04-16 13:20:00,
2013-04-16 06:26:00,38.7,22.6,29.18,SW,220,0.0,0.0,52,0.00,,---,0.00,VWS V14.00,2013-04-16 13:26:00,
2013-04-16 06:32:00,38.5,22.4,29.18,SW,220,0.0,0.0,52,0.00,,---,0.00,VWS V14.00,2013-04-16 13:32:00,
2013-04-16 06:37:00,38.5,22.4,29.18,SW,220,0.0,0.0,52,0.00,,---,0.00,VWS V14.00,2013-04-16 13:37:00,
2013-04-16 06:42:00,38.5,22.9,29.18,SW,220,0.0,0.0,53,0.00,,---,0.00,VWS V14.00,2013-04-16 13:42:00,
2013-04-16 06:48:00,38.7,23.0,29.18,SW,220,0.0,0.0,53,0.00,,---,0.00,VWS V14.00,2013-04-16 13:48:00,
2013-04-16 06:53:00,38.7,23.0,29.18,SW,220,0.0,0.0,53,0.00,,---,0.00,VWS V14.00,2013-04-16 13:53:00,
2013-04-16 06:59:00,38.7,23.0,29.18,SW,220,0.0,0.0,53,0.00,,---,0.00,VWS V14.00,2013-04-16 13:59:00,
2013-04-16 07:22:00,39.4,23.7,29.18,SW,220,0.0,0.0,53,0.00,,---,0.00,VWS V14.00,2013-04-16 14:22:00,
2013-04-16 07:27:00,39.7,24.0,29.18,SW,220,0.0,0.0,53,0.00,,---,0.00,VWS V14.00,2013-04-16 14:27:00,
2013-04-16 07:32:00,40.1,24.4,29.18,SW,220,0.0,0.0,53,0.00,,---,0.00,VWS V14.00,2013-04-16 14:32:00,
2013-04-16 07:37:00,40.6,24.4,29.18,SW,220,0.0,0.0,52,0.00,,---,0.00,VWS V14.00,2013-04-16 14:37:00,
2013-04-16 07:43:00,40.6,24.4,29.18,SW,220,0.0,0.0,52,0.00,,---,0.00,VWS V14.00,2013-04-16 14:43:00,
2013-04-16 07:48:00,40.8,24.6,29.18,SW,220,0.0,0.0,52,0.00,,---,0.00,VWS V14.00,2013-04-16 14:48:00,
2013-04-16 07:54:00,41.2,24.9,29.18,SW,220,0.0,0.0,52,0.00,,---,0.00,VWS V14.00,2013-04-16 14:54:00,
2013-04-16 07:59:00,41.2,24.4,29.18,SW,220,0.0,0.0,51,0.00,,---,0.00,VWS V14.00,2013-04-16 14:59:00,
2013-04-16 08:05:00,41.5,24.8,29.18,SW,220,0.0,0.0,51,0.00,,---,0.00,VWS V14.00,2013-04-16 15:05:00,
2013-04-16 08:10:00,41.9,24.6,29.18,SW,220,0.0,0.0,50,0.00,,---,0.00,VWS V14.00,2013-04-16 15:10:00,
2013-04-16 08:21:00,42.4,25.1,29.21,SW,220,0.0,0.0,50,0.00,,---,0.00,VWS V14.00,2013-04-16 15:21:00,
2013-04-16 08:27:00,42.8,25.0,29.21,SW,220,0.0,0.0,49,0.00,,---,0.00,VWS V14.00,2013-04-16 15:27:00,
2013-04-16 08:33:00,43.0,25.1,29.21,SW,220,0.0,0.0,49,0.00,,---,0.00,VWS V14.00,2013-04-16 15:33:00,
2013-04-16 08:38:00,43.3,25.5,29.21,SW,220,0.0,0.0,49,0.00,,---,0.00,VWS V14.00,2013-04-16 15:38:00,
2013-04-16 08:44:00,43.7,25.8,29.21,SW,220,0.0,0.0,49,0.00,,---,0.00,VWS V14.00,2013-04-16 15:44:00,
2013-04-16 08:49:00,44.1,26.1,29.21,SW,220,0.0,0.0,49,0.00,,---,0.00,VWS V14.00,2013-04-16 15:49:00,
2013-04-16 09:16:00,46.0,26.4,29.21,WSW,237,0.0,0.0,46,0.00,,---,0.00,VWS V14.00,2013-04-16 16:16:00,
2013-04-16 09:33:00,46.9,26.2,29.21,WSW,237,0.0,0.0,44,0.00,,---,0.00,VWS V14.00,2013-04-16 16:33:00,
2013-04-16 09:39:00,47.3,26.0,29.21,WSW,237,0.0,0.0,43,0.00,,---,0.00,VWS V14.00,2013-04-16 16:39:00,
2013-04-16 09:44:00,47.7,25.7,29.21,WSW,255,0.0,0.0,42,0.00,,---,0.00,VWS V14.00,2013-04-16 16:44:00,
2013-04-16 10:02:00,48.7,25.5,29.21,WSW,238,0.0,2.7,40,0.00,,---,0.00,VWS V14.00,2013-04-16 17:02:00,
2013-04-16 10:07:00,49.1,25.2,29.21,West,268,0.0,0.0,39,0.00,,---,0.00,VWS V14.00,2013-04-16 17:07:00,
2013-04-16 10:12:00,49.5,25.5,29.21,West,268,0.0,0.0,39,0.00,,---,0.00,VWS V14.00,2013-04-16 17:12:00,
2013-04-16 10:18:00,50.0,26.0,29.21,WSW,257,0.0,0.0,39,0.00,,---,0.00,VWS V14.00,2013-04-16 17:18:00,
2013-04-16 10:38:00,51.6,26.2,29.21,WSW,257,0.0,0.0,37,0.00,,---,0.00,VWS V14.00,2013-04-16 17:38:00,
2013-04-16 10:43:00,52.0,26.5,29.21,WSW,257,0.0,0.0,37,0.00,,---,0.00,VWS V14.00,2013-04-16 17:43:00,
2013-04-16 10:48:00,52.5,26.4,29.21,WSW,255,0.0,0.0,36,0.00,,---,0.00,VWS V14.00,2013-04-16 17:48:00,
2013-04-16 10:53:00,52.9,25.3,29.21,SSE,155,0.0,0.0,34,0.00,,---,0.00,VWS V14.00,2013-04-16 17:53:00,
2013-04-16 10:59:00,53.6,24.5,29.21,SE,135,0.0,0.0,32,0.00,,---,0.00,VWS V14.00,2013-04-16 17:59:00,
2013-04-16 11:04:00,54.1,25.7,29.21,SE,135,0.0,0.0,33,0.00,,---,0.00,VWS V14.00,2013-04-16 18:04:00,
2013-04-16 11:10:00,54.5,26.0,29.21,ESE,121,0.0,0.0,33,0.00,,---,0.00,VWS V14.00,2013-04-16 18:10:00,
2013-04-16 11:15:00,55.2,23.5,29.21,SSW,204,0.0,3.6,29,0.00,,---,0.00,VWS V14.00,2013-04-16 18:15:00,
2013-04-16 11:21:00,55.9,21.6,29.21,SW,225,0.0,0.0,26,0.00,,---,0.00,VWS V14.00,2013-04-16 18:21:00,
2013-04-16 11:26:00,56.3,21.9,29.21,NNW,339,0.0,0.0,26,0.00,,---,0.00,VWS V14.00,2013-04-16 18:26:00,
2013-04-16 11:32:00,56.8,21.4,29.21,WSW,256,0.0,0.0,25,0.00,,---,0.00,VWS V14.00,2013-04-16 18:32:00,
2013-04-16 11:38:00,57.2,20.8,29.21,SW,215,0.0,0.0,24,0.00,,---,0.00,VWS V14.00,2013-04-16 18:38:00,
2013-04-16 11:43:00,57.6,21.1,29.21,WSW,251,0.0,0.0,24,0.00,,---,0.00,VWS V14.00,2013-04-16 18:43:00,
2013-04-16 11:49:00,58.1,16.1,29.21,NNE,18,0.0,3.1,19,0.00,,---,0.00,VWS V14.00,2013-04-16 18:49:00,
2013-04-16 12:02:00,58.8,14.1,29.21,West,271,0.0,3.6,17,0.00,,---,0.00,VWS V14.00,2013-04-16 19:02:00,
2013-04-16 12:07:00,59.0,9.9,29.21,WSW,248,2.2,2.2,14,0.00,,---,0.00,VWS V14.00,2013-04-16 19:07:00,
2013-04-16 12:26:00,60.4,1.4,29.21,SE,135,0.0,4.9,9,0.00,,---,0.00,VWS V14.00,2013-04-16 19:26:00,
2013-04-16 12:47:00,62.4,2.9,29.21,WSW,257,2.2,4.0,9,0.00,,---,0.00,VWS V14.00,2013-04-16 19:47:00,
2013-04-16 12:53:00,63.3,1.0,29.21,North,353,0.0,0.0,8,0.00,,---,0.00,VWS V14.00,2013-04-16 19:53:00,
2013-04-16 12:58:00,63.5,1.1,29.21,WSW,246,2.2,2.2,8,0.00,,---,0.00,VWS V14.00,2013-04-16 19:58:00,
2013-04-16 13:04:00,63.9,-4.7,29.21,SW,234,0.0,0.0,6,0.00,,---,0.00,VWS V14.00,2013-04-16 20:04:00,
2013-04-16 13:10:00,64.6,-7.9,29.21,SW,229,0.0,0.0,5,0.00,,---,0.00,VWS V14.00,2013-04-16 20:10:00,
2013-04-16 13:16:00,65.7,-7.1,29.21,NW,320,0.0,2.7,5,0.00,,---,0.00,VWS V14.00,2013-04-16 20:16:00,
2013-04-16 13:21:00,65.8,-7.0,29.21,West,261,0.0,5.4,5,0.00,,---,0.00,VWS V14.00,2013-04-16 20:21:00,
2013-04-16 13:27:00,65.8,-7.0,29.18,ESE,113,0.0,0.0,5,0.00,,---,0.00,VWS V14.00,2013-04-16 20:27:00,
2013-04-16 13:32:00,66.7,0.7,29.18,West,274,2.7,2.7,7,0.00,,---,0.00,VWS V14.00,2013-04-16 20:32:00,
2013-04-16 13:38:00,67.1,-6.1,29.18,South,183,3.1,3.6,5,0.00,,---,0.00,VWS V14.00,2013-04-16 20:38:00,
2013-04-16 13:44:00,67.1,-6.1,29.18,SSE,149,0.0,0.0,5,0.00,,---,0.00,VWS V14.00,2013-04-16 20:44:00,
2013-04-16 13:49:00,67.3,-6.0,29.18,WNW,285,0.0,2.2,5,0.00,,---,0.00,VWS V14.00,2013-04-16 20:49:00,
2013-04-16 13:55:00,67.3,-6.0,29.18,SW,222,4.0,4.0,5,0.00,,---,0.00,VWS V14.00,2013-04-16 20:55:00,
2013-04-16 14:00:00,67.3,-6.0,29.18,ENE,78,0.0,3.6,5,0.00,,---,0.00,VWS V14.00,2013-04-16 21:00:00,
2013-04-16 14:06:00,67.3,1.1,29.18,NNW,337,2.7,2.7,7,0.00,,---,0.00,VWS V14.00,2013-04-16 21:06:00,
2013-04-16 14:11:00,66.9,0.8,29.18,WNW,293,0.0,2.7,7,0.00,,---,0.00,VWS V14.00,2013-04-16 21:11:00,
2013-04-16 14:17:00,66.7,0.7,29.18,WSW,257,0.0,0.0,7,0.00,,---,0.00,VWS V14.00,2013-04-16 21:17:00,
2013-04-16 14:23:00,66.6,0.6,29.18,West,261,2.2,2.7,7,0.00,,---,0.00,VWS V14.00,2013-04-16 21:23:00,
2013-04-16 14:29:00,66.6,0.6,29.18,SE,136,0.0,0.0,7,0.00,,---,0.00,VWS V14.00,2013-04-16 21:29:00,
2013-04-16 14:35:00,66.0,3.0,29.18,NE,39,0.0,0.0,8,0.00,,---,0.00,VWS V14.00,2013-04-16 21:35:00,
2013-04-16 14:41:00,65.7,-7.1,29.18,WSW,257,3.1,3.1,5,0.00,,---,0.00,VWS V14.00,2013-04-16 21:41:00,
2013-04-16 14:46:00,65.7,-7.1,29.18,West,260,0.0,0.0,5,0.00,,---,0.00,VWS V14.00,2013-04-16 21:46:00,
2013-04-16 14:52:00,65.7,-7.1,29.18,NW,317,0.0,0.0,5,0.00,,---,0.00,VWS V14.00,2013-04-16 21:52:00,
2013-04-16 14:57:00,65.3,-7.4,29.18,WNW,284,0.0,0.0,5,0.00,,---,0.00,VWS V14.00,2013-04-16 21:57:00,
2013-04-16 15:02:00,65.1,-7.5,29.18,WSW,245,3.1,3.1,5,0.00,,---,0.00,VWS V14.00,2013-04-16 22:02:00,
2013-04-16 15:08:00,65.1,2.4,29.18,ESE,122,0.0,2.7,8,0.00,,---,0.00,VWS V14.00,2013-04-16 22:08:00,
2013-04-16 15:13:00,64.9,-7.6,29.18,WSW,242,2.2,3.1,5,0.00,,---,0.00,VWS V14.00,2013-04-16 22:13:00,
2013-04-16 15:19:00,64.8,2.1,29.18,South,178,2.2,2.2,8,0.00,,---,0.00,VWS V14.00,2013-04-16 22:19:00,
2013-04-16 15:25:00,64.6,2.0,29.18,SSW,193,0.0,0.0,8,0.00,,---,0.00,VWS V14.00,2013-04-16 22:25:00,
2013-04-16 15:30:00,64.4,1.8,29.18,SE,141,0.0,0.0,8,0.00,,---,0.00,VWS V14.00,2013-04-16 22:30:00,
2013-04-16 15:35:00,63.9,1.4,29.18,SSE,151,0.0,0.0,8,0.00,,---,0.00,VWS V14.00,2013-04-16 22:35:00,
2013-04-16 15:40:00,63.9,1.4,29.18,WNW,303,2.7,2.7,8,0.00,,---,0.00,VWS V14.00,2013-04-16 22:40:00,
2013-04-16 15:45:00,63.9,-4.7,29.18,South,181,0.0,0.0,6,0.00,,---,0.00,VWS V14.00,2013-04-16 22:45:00,
2013-04-16 15:51:00,63.9,1.4,29.18,South,183,0.0,3.1,8,0.00,,---,0.00,VWS V14.00,2013-04-16 22:51:00,
2013-04-16 15:56:00,63.9,1.4,29.18,SE,136,0.0,4.0,8,0.00,,---,0.00,VWS V14.00,2013-04-16 22:56:00,
2013-04-16 16:02:00,63.5,1.1,29.18,WNW,295,0.0,0.0,8,0.00,,---,0.00,VWS V14.00,2013-04-16 23:02:00,
2013-04-16 16:08:00,63.5,1.1,29.18,WSW,249,0.0,2.7,8,0.00,,---,0.00,VWS V14.00,2013-04-16 23:08:00,
2013-04-16 16:13:00,63.5,1.1,29.18,NNW,341,0.0,0.0,8,0.00,,---,0.00,VWS V14.00,2013-04-16 23:13:00,
2013-04-16 16:19:00,63.5,1.1,29.18,North,353,0.0,4.0,8,0.00,,---,0.00,VWS V14.00,2013-04-16 23:19:00,
2013-04-16 16:24:00,63.3,1.0,29.18,NW,305,0.0,0.0,8,0.00,,---,0.00,VWS V14.00,2013-04-16 23:24:00,
2013-04-16 16:29:00,63.1,0.9,29.18,SE,139,2.2,3.1,8,0.00,,---,0.00,VWS V14.00,2013-04-16 23:29:00,
2013-04-16 16:34:00,63.0,-5.3,29.18,WSW,250,0.0,2.7,6,0.00,,---,0.00,VWS V14.00,2013-04-16 23:34:00,
2013-04-16 16:40:00,63.0,-9.0,29.18,WSW,247,0.0,2.7,5,0.00,,---,0.00,VWS V14.00,2013-04-16 23:40:00,
2013-04-16 16:46:00,63.1,-5.2,29.18,North,357,0.0,0.0,6,0.00,,---,0.00,VWS V14.00,2013-04-16 23:46:00,
2013-04-16 16:57:00,63.1,-8.9,29.18,NW,318,0.0,4.0,5,0.00,,---,0.00,VWS V14.00,2013-04-16 23:57:00,
2013-04-16 17:04:00,63.1,-8.9,29.18,WNW,291,3.6,7.2,5,0.00,,---,0.00,VWS V14.00,2013-04-17 00:04:00,
2013-04-16 17:10:00,63.1,-8.9,29.18,WSW,257,0.0,3.1,5,0.00,,---,0.00,VWS V14.00,2013-04-17 00:10:00,
2013-04-16 17:15:00,63.1,-8.9,29.18,NNW,331,0.0,0.0,5,0.00,,---,0.00,VWS V14.00,2013-04-17 00:15:00,
2013-04-16 17:20:00,62.8,-5.4,29.18,SW,220,0.0,2.7,6,0.00,,---,0.00,VWS V14.00,2013-04-17 00:20:00,
2013-04-16 17:26:00,62.4,-5.7,29.18,WNW,296,0.0,2.7,6,0.00,,---,0.00,VWS V14.00,2013-04-17 00:26:00,
2013-04-16 17:39:00,61.7,-9.9,29.18,WNW,282,0.0,4.0,5,0.00,,---,0.00,VWS V14.00,2013-04-17 00:39:00,
2013-04-16 17:40:00,61.7,-9.9,29.18,WNW,282,0.0,0.0,5,0.00,,---,0.00,VWS V14.00,2013-04-17 00:40:00,
2013-04-16 17:41:00,61.7,-9.9,29.18,WNW,282,0.0,0.0,5,0.00,,---,0.00,VWS V14.00,2013-04-17 00:41:00,
2013-04-16 17:42:00,61.7,-9.9,29.18,WNW,282,0.0,0.0,5,0.00,,---,0.00,VWS V14.00,2013-04-17 00:42:00,
2013-04-16 17:43:00,61.5,-10.1,29.18,WNW,285,0.0,0.0,5,0.00,,---,0.00,VWS V14.00,2013-04-17 00:43:00,
2013-04-16 17:44:00,61.5,-10.1,29.18,West,278,0.0,0.0,5,0.00,,---,0.00,VWS V14.00,2013-04-17 00:44:00,
2013-04-16 17:45:00,61.3,-10.2,29.18,West,278,0.0,0.0,5,0.00,,---,0.00,VWS V14.00,2013-04-17 00:45:00,
2013-04-16 17:46:00,61.3,-10.2,29.18,West,278,0.0,0.0,5,0.00,,---,0.00,VWS V14.00,2013-04-17 00:46:00,
2013-04-16 17:47:00,61.3,-6.5,29.18,NW,311,0.0,0.0,6,0.00,,---,0.00,VWS V14.00,2013-04-17 00:47:00,
2013-04-16 17:48:00,61.2,-6.6,29.18,NW,317,0.0,0.0,6,0.00,,---,0.00,VWS V14.00,2013-04-17 00:48:00,
2013-04-16 17:49:00,61.2,-6.6,29.18,West,267,0.0,0.0,6,0.00,,---,0.00,VWS V14.00,2013-04-17 00:49:00,
2013-04-16 17:50:00,61.2,-6.6,29.18,SW,226,0.0,0.0,6,0.00,,---,0.00,VWS V14.00,2013-04-17 00:50:00,
2013-04-16 17:51:00,61.2,-6.6,29.18,West,265,0.0,2.2,6,0.00,,---,0.00,VWS V14.00,2013-04-17 00:51:00,
2013-04-16 17:53:00,61.2,-6.6,29.18,WSW,258,0.0,0.0,6,0.00,,---,0.00,VWS V14.00,2013-04-17 00:53:00,
2013-04-16 17:54:00,61.2,-6.6,29.18,WNW,290,0.0,0.0,6,0.00,,---,0.00,VWS V14.00,2013-04-17 00:54:00,
2013-04-16 17:55:00,61.2,-6.6,29.18,WSW,258,0.0,0.0,6,0.00,,---,0.00,VWS V14.00,2013-04-17 00:55:00,
2013-04-16 17:56:00,61.2,-6.6,29.18,SSW,198,2.2,3.1,6,0.00,,---,0.00,VWS V14.00,2013-04-17 00:56:00,
2013-04-16 17:57:00,61.2,-6.6,29.18,NW,324,0.0,2.2,6,0.00,,---,0.00,VWS V14.00,2013-04-17 00:57:00,
2013-04-16 17:58:00,61.2,-6.6,29.18,WSW,247,2.7,2.7,6,0.00,,---,0.00,VWS V14.00,2013-04-17 00:58:00,
2013-04-16 17:59:00,61.2,-6.6,29.18,SW,226,3.1,3.1,6,0.00,,---,0.00,VWS V14.00,2013-04-17 00:59:00,
2013-04-16 18:00:00,61.2,-6.6,29.18,NE,51,3.1,3.1,6,0.00,,---,0.00,VWS V14.00,2013-04-17 01:00:00,
2013-04-16 18:01:00,61.2,-6.6,29.18,North,357,2.2,3.1,6,0.00,,---,0.00,VWS V14.00,2013-04-17 01:01:00,
2013-04-16 18:02:00,61.2,-6.6,29.18,SW,216,0.0,2.7,6,0.00,,---,0.00,VWS V14.00,2013-04-17 01:02:00,
2013-04-16 18:03:00,61.2,-10.3,29.18,West,280,0.0,0.0,5,0.00,,---,0.00,VWS V14.00,2013-04-17 01:03:00,
2013-04-16 18:04:00,61.2,-6.6,29.18,South,186,0.0,2.2,6,0.00,,---,0.00,VWS V14.00,2013-04-17 01:04:00,
2013-04-16 18:05:00,61.2,-6.6,29.18,SSE,152,0.0,2.7,6,0.00,,---,0.00,VWS V14.00,2013-04-17 01:05:00,
2013-04-16 18:06:00,61.2,-10.3,29.18,WNW,283,2.7,2.7,5,0.00,,---,0.00,VWS V14.00,2013-04-17 01:06:00,
2013-04-16 18:07:00,61.2,-10.3,29.18,West,262,0.0,2.7,5,0.00,,---,0.00,VWS V14.00,2013-04-17 01:07:00,
2013-04-16 18:08:00,61.2,-10.3,29.18,WNW,293,0.0,0.0,5,0.00,,---,0.00,VWS V14.00,2013-04-17 01:08:00,
2013-04-16 18:09:00,61.0,-6.7,29.18,NW,307,0.0,0.0,6,0.00,,---,0.00,VWS V14.00,2013-04-17 01:09:00,
2013-04-16 18:10:00,61.0,-6.7,29.18,WNW,303,0.0,0.0,6,0.00,,---,0.00,VWS V14.00,2013-04-17 01:10:00,
2013-04-16 18:11:00,61.0,-6.7,29.18,West,272,0.0,2.7,6,0.00,,---,0.00,VWS V14.00,2013-04-17 01:11:00,
2013-04-16 18:12:00,61.0,-6.7,29.18,SSW,197,4.0,4.0,6,0.00,,---,0.00,VWS V14.00,2013-04-17 01:12:00,
2013-04-16 18:13:00,61.0,-6.7,29.18,WSW,243,0.0,4.0,6,0.00,,---,0.00,VWS V14.00,2013-04-17 01:13:00,
2013-04-16 18:14:00,60.8,-6.9,29.18,SSW,194,2.2,2.7,6,0.00,,---,0.00,VWS V14.00,2013-04-17 01:14:00,
2013-04-16 18:15:00,60.8,-6.9,29.18,WNW,284,0.0,2.7,6,0.00,,---,0.00,VWS V14.00,2013-04-17 01:15:00,
2013-04-16 18:16:00,60.8,-6.9,29.18,WSW,253,0.0,0.0,6,0.00,,---,0.00,VWS V14.00,2013-04-17 01:16:00,
2013-04-16 18:17:00,60.6,-3.8,29.18,WSW,248,2.7,3.1,7,0.00,,---,0.00,VWS V14.00,2013-04-17 01:17:00,
2013-04-16 18:18:00,60.6,-3.8,29.18,SW,236,0.0,2.7,7,0.00,,---,0.00,VWS V14.00,2013-04-17 01:18:00,
2013-04-16 18:19:00,60.6,-3.8,29.18,WSW,238,2.2,3.1,7,0.00,,---,0.00,VWS V14.00,2013-04-17 01:19:00,
2013-04-16 18:20:00,60.4,-4.0,29.18,WNW,296,0.0,3.1,7,0.00,,---,0.00,VWS V14.00,2013-04-17 01:20:00,
2013-04-16 18:21:00,60.4,-4.0,29.18,WNW,297,0.0,0.0,7,0.00,,---,0.00,VWS V14.00,2013-04-17 01:21:00,
2013-04-16 18:23:00,60.3,-4.1,29.18,WSW,257,0.0,2.2,7,0.00,,---,0.00,VWS V14.00,2013-04-17 01:23:00,
2013-04-16 18:24:00,60.3,-4.1,29.18,SW,224,2.7,2.7,7,0.00,,---,0.00,VWS V14.00,2013-04-17 01:24:00,
2013-04-16 18:25:00,60.1,-4.2,29.18,SW,230,2.2,2.7,7,0.00,,---,0.00,VWS V14.00,2013-04-17 01:25:00,
2013-04-16 18:26:00,60.1,-4.2,29.18,SW,221,0.0,2.7,7,0.00,,---,0.00,VWS V14.00,2013-04-17 01:26:00,
2013-04-16 18:28:00,60.1,-4.2,29.18,WSW,241,2.2,3.1,7,0.00,,---,0.00,VWS V14.00,2013-04-17 01:28:00,
2013-04-16 18:29:00,60.1,-4.2,29.18,SW,236,0.0,2.2,7,0.00,,---,0.00,VWS V14.00,2013-04-17 01:29:00,
2013-04-16 18:30:00,59.9,-4.3,29.18,WSW,254,0.0,0.0,7,0.00,,---,0.00,VWS V14.00,2013-04-17 01:30:00,
2013-04-16 19:20:00,59.9,-4.3,29.18,WSW,258,0.0,0.0,7,0.00,,---,0.00,VWS V14.00,2013-04-17 02:20:00,
2013-04-16 19:26:00,59.5,-4.6,29.21,SSW,212,0.0,0.0,7,0.00,,---,0.00,VWS V14.00,2013-04-17 02:26:00,
2013-04-16 19:31:00,59.2,-4.9,29.21,SW,216,0.0,0.0,7,0.00,,---,0.00,VWS V14.00,2013-04-17 02:31:00,
2013-04-16 19:37:00,58.8,-5.2,29.21,SW,235,0.0,0.0,7,0.00,,---,0.00,VWS V14.00,2013-04-17 02:37:00,
2013-04-16 19:44:00,58.5,-0.2,29.21,WSW,242,0.0,0.0,9,0.00,,---,0.00,VWS V14.00,2013-04-17 02:44:00,
2013-04-16 19:50:00,57.9,-0.6,29.21,WSW,242,0.0,0.0,9,0.00,,---,0.00,VWS V14.00,2013-04-17 02:50:00,
2013-04-16 19:55:00,57.7,-0.7,29.21,WSW,242,0.0,0.0,9,0.00,,---,0.00,VWS V14.00,2013-04-17 02:55:00,
2013-04-16 20:30:00,55.4,3.7,29.23,WSW,242,0.0,0.0,12,0.00,,---,0.00,VWS V14.00,2013-04-17 03:30:00,
2013-04-16 20:36:00,55.0,5.1,29.23,WSW,242,0.0,0.0,13,0.00,,---,0.00,VWS V14.00,2013-04-17 03:36:00,
2013-04-16 21:26:00,52.3,19.4,29.23,WSW,242,0.0,0.0,27,0.00,,---,0.00,VWS V14.00,2013-04-17 04:26:00,
2013-04-16 21:27:00,52.3,20.2,29.23,WSW,242,0.0,0.0,28,0.00,,---,0.00,VWS V14.00,2013-04-17 04:27:00,
2013-04-16 21:29:00,52.3,20.2,29.23,WSW,242,0.0,0.0,28,0.00,,---,0.00,VWS V14.00,2013-04-17 04:29:00,
2013-04-16 21:35:00,52.2,20.1,29.23,WSW,242,0.0,0.0,28,0.00,,---,0.00,VWS V14.00,2013-04-17 04:35:00,
2013-04-16 21:36:00,52.2,20.1,29.23,WSW,242,0.0,0.0,28,0.00,,---,0.00,VWS V14.00,2013-04-17 04:36:00,
2013-04-16 21:41:00,52.3,20.2,29.23,WSW,242,0.0,0.0,28,0.00,,---,0.00,VWS V14.00,2013-04-17 04:41:00,
2013-04-16 21:46:00,52.3,19.4,29.23,NW,306,0.0,0.0,27,0.00,,---,0.00,VWS V14.00,2013-04-17 04:46:00,
2013-04-16 21:52:00,52.7,18.8,29.23,NW,311,0.0,0.0,26,0.00,,---,0.00,VWS V14.00,2013-04-17 04:52:00,
2013-04-16 21:57:00,53.1,14.2,29.26,WNW,298,0.0,3.6,21,0.00,,---,0.00,VWS V14.00,2013-04-17 04:57:00,
2013-04-16 22:03:00,53.6,13.5,29.26,NW,306,0.0,0.0,20,0.00,,---,0.00,VWS V14.00,2013-04-17 05:03:00,
2013-04-16 22:17:00,54.1,7.5,29.26,WNW,287,0.0,4.0,15,0.00,,---,0.00,VWS V14.00,2013-04-17 05:17:00,
2013-04-16 22:37:00,54.5,4.7,29.26,NW,312,3.1,4.0,13,0.00,,---,0.00,VWS V14.00,2013-04-17 05:37:00,
2013-04-16 22:59:00,54.1,-1.2,29.26,WNW,301,2.7,5.8,10,0.00,,---,0.00,VWS V14.00,2013-04-17 05:59:00,
2013-04-16 23:00:00,54.1,-1.2,29.26,NW,317,0.0,2.7,10,0.00,,---,0.00,VWS V14.00,2013-04-17 06:00:00,
2013-04-16 23:01:00,54.1,-1.2,29.26,NW,317,0.0,0.0,10,0.00,,---,0.00,VWS V14.00,2013-04-17 06:01:00,
2013-04-16 23:02:00,54.1,-1.2,29.26,NW,310,0.0,0.0,10,0.00,,---,0.00,VWS V14.00,2013-04-17 06:02:00,
2013-04-16 23:03:00,54.1,-1.2,29.26,NW,310,0.0,0.0,10,0.00,,---,0.00,VWS V14.00,2013-04-17 06:03:00,
2013-04-16 23:04:00,54.1,-1.2,29.26,ENE,78,0.0,0.0,10,0.00,,---,0.00,VWS V14.00,2013-04-17 06:04:00,
2013-04-16 23:05:00,54.1,-1.2,29.26,WNW,285,3.1,3.1,10,0.00,,---,0.00,VWS V14.00,2013-04-17 06:05:00,
2013-04-16 23:06:00,54.1,-1.2,29.26,NW,323,3.1,3.1,10,0.00,,---,0.00,VWS V14.00,2013-04-17 06:06:00,
2013-04-16 23:07:00,54.1,-1.2,29.26,WNW,303,0.0,3.1,10,0.00,,---,0.00,VWS V14.00,2013-04-17 06:07:00,
2013-04-16 23:08:00,54.1,-1.2,29.26,WNW,303,2.7,2.7,10,0.00,,---,0.00,VWS V14.00,2013-04-17 06:08:00,
2013-04-16 23:09:00,54.1,-1.2,29.26,NW,324,2.2,3.6,10,0.00,,---,0.00,VWS V14.00,2013-04-17 06:09:00,
2013-04-16 23:10:00,54.1,-1.2,29.26,NNW,340,0.0,3.6,10,0.00,,---,0.00,VWS V14.00,2013-04-17 06:10:00,
2013-04-16 23:11:00,54.1,-1.2,29.26,NNW,333,0.0,2.2,10,0.00,,---,0.00,VWS V14.00,2013-04-17 06:11:00,
2013-04-16 23:12:00,54.1,-1.2,29.26,NW,322,0.0,0.0,10,0.00,,---,0.00,VWS V14.00,2013-04-17 06:12:00,
2013-04-16 23:13:00,54.1,-1.2,29.26,WNW,295,0.0,0.0,10,0.00,,---,0.00,VWS V14.00,2013-04-17 06:13:00,
2013-04-16 23:14:00,54.1,-1.2,29.26,NW,305,0.0,0.0,10,0.00,,---,0.00,VWS V14.00,2013-04-17 06:14:00,
2013-04-16 23:15:00,54.1,-1.2,29.26,NW,322,0.0,0.0,10,0.00,,---,0.00,VWS V14.00,2013-04-17 06:15:00,
2013-04-16 23:16:00,54.1,-1.2,29.26,NW,318,2.2,2.7,10,0.00,,---,0.00,VWS V14.00,2013-04-17 06:16:00,
2013-04-16 23:17:00,54.0,-1.4,29.26,NW,318,0.0,2.2,10,0.00,,---,0.00,VWS V14.00,2013-04-17 06:17:00,
2013-04-16 23:18:00,54.0,-1.4,29.26,NW,316,0.0,0.0,10,0.00,,---,0.00,VWS V14.00,2013-04-17 06:18:00,
2013-04-16 23:19:00,54.0,-1.4,29.26,NW,315,2.7,2.7,10,0.00,,---,0.00,VWS V14.00,2013-04-17 06:19:00,
2013-04-16 23:20:00,54.0,-1.4,29.26,WNW,295,3.6,3.6,10,0.00,,---,0.00,VWS V14.00,2013-04-17 06:20:00,
2013-04-16 23:21:00,54.0,-1.4,29.26,NW,323,0.0,4.0,10,0.00,,---,0.00,VWS V14.00,2013-04-17 06:21:00,
2013-04-16 23:22:00,54.0,-1.4,29.26,West,276,3.1,3.1,10,0.00,,---,0.00,VWS V14.00,2013-04-17 06:22:00,
2013-04-16 23:23:00,54.0,-1.4,29.26,WNW,301,0.0,3.1,10,0.00,,---,0.00,VWS V14.00,2013-04-17 06:23:00,
2013-04-16 23:24:00,54.0,-1.4,29.26,NW,305,3.6,3.6,10,0.00,,---,0.00,VWS V14.00,2013-04-17 06:24:00,
2013-04-16 23:25:00,54.0,-1.4,29.26,NW,307,0.0,3.6,10,0.00,,---,0.00,VWS V14.00,2013-04-17 06:25:00,
2013-04-16 23:26:00,54.0,-1.4,29.26,NW,308,0.0,0.0,10,0.00,,---,0.00,VWS V14.00,2013-04-17 06:26:00,
2013-04-16 23:27:00,54.0,-1.4,29.26,NW,309,2.7,2.7,10,0.00,,---,0.00,VWS V14.00,2013-04-17 06:27:00,
2013-04-16 23:28:00,54.0,-1.4,29.26,WNW,303,0.0,2.7,10,0.00,,---,0.00,VWS V14.00,2013-04-17 06:28:00,
2013-04-16 23:29:00,54.0,-1.4,29.26,WNW,293,0.0,0.0,10,0.00,,---,0.00,VWS V14.00,2013-04-17 06:29:00,
2013-04-16 23:30:00,54.0,-1.4,29.26,West,274,0.0,2.2,10,0.00,,---,0.00,VWS V14.00,2013-04-17 06:30:00,
2013-04-16 23:58:00,53.8,-1.5,29.26,West,274,0.0,0.0,10,0.00,,---,0.00,VWS V14.00,2013-04-17 06:58:00,